This is the latest recevied weather packets stored in our database for station/object W8LMG. If no packets are shown the sender has not sent any weather packets the latest 10 day(s).
| Time | Temp. | Humidity | Pressure | Rain* | Wind** | Luminosity | Snow |
|---|---|---|---|---|---|---|---|
| 1777997702 | 21.67° C | 39% | 1014.6 hPa | 0 mm | - | 216 W/m² | - |
| 1777997400 | 21.67° C | 41% | 1014.5 hPa | 0 mm | - | 209 W/m² | - |
| 1777997098 | 22.22° C | 40% | 1014.6 hPa | 0 mm | - | 303 W/m² | - |
| 1777996794 | 21.11° C | 44% | 1014.6 hPa | 0 mm | - | 295 W/m² | - |
| 1777996491 | 21.11° C | 40% | 1014.6 hPa | 0 mm | - | 173 W/m² | - |
| 1777996188 | 21.11° C | 43% | 1014.8 hPa | 0 mm | - | 311 W/m² | - |
| 1777995884 | 21.67° C | 44% | 1014.7 hPa | 0 mm | - | 277 W/m² | - |
| 1777995580 | 21.67° C | 42% | 1014.8 hPa | 0 mm | - | 396 W/m² | - |
| 1777995278 | 21.67° C | 44% | 1014.9 hPa | 0 mm | - | 408 W/m² | - |
| 1777994974 | 21.67° C | 41% | 1014.8 hPa | 0 mm | - | 556 W/m² | - |
| 1777994672 | 21.11° C | 42% | 1014.8 hPa | 0 mm | - | 488 W/m² | - |
| 1777994372 | 21.67° C | 41% | 1015 hPa | 0 mm | - | 422 W/m² | - |
| 1777994068 | 21.11° C | 45% | 1015 hPa | 0 mm | - | 295 W/m² | - |
| 1777993765 | 20.56° C | 47% | 1015 hPa | 0 mm | - | 274 W/m² | - |
| 1777993462 | 20.56° C | 47% | 1014.9 hPa | 0 mm | - | 295 W/m² | - |
| 1777993162 | 20° C | 47% | 1015 hPa | 0 mm | - | 326 W/m² | - |
| 1777992860 | 20.56° C | 43% | 1015 hPa | 0 mm | - | 187 W/m² | - |
| 1777992558 | 20.56° C | 47% | 1014.9 hPa | 0 mm | - | 131 W/m² | - |
| 1777992256 | 20.56° C | 44% | 1015 hPa | 0 mm | - | 190 W/m² | - |
| 1777991953 | 20.56° C | 47% | 1015 hPa | 0 mm | - | 333 W/m² | - |
| 1777991650 | 20° C | 46% | 1015.2 hPa | 0 mm | - | 397 W/m² | - |
| 1777991347 | 20° C | 48% | 1015.1 hPa | 0 mm | - | 154 W/m² | - |
| 1777991044 | 20° C | 49% | 1014.9 hPa | 0 mm | - | 379 W/m² | - |
| 1777990741 | 20° C | 51% | 1015.1 hPa | 0 mm | - | 312 W/m² | - |
| 1777990439 | 20° C | 58% | 1014.8 hPa | 0 mm | - | 285 W/m² | - |
* Rain latest hour (hover to see other rain measurements)
** Current wind speed in m/s (hover to see current wind gust speed)